Weather History for Nadi, Fiji

Change the Weather History Date:

Thursday, August 29, 2013

  Actual Average Record
Temperature  
Mean Temperature 76 °F -  
Max Temperature 84 °F 81 °F 86 °F (2007)
Min Temperature 68 °F 67 °F 60 °F (2003)
Cooling Degree Days 11    
Growing Degree Days 26 (Base 50)    
Moisture  
Dew Point 68 °F    
Average Humidity 76    
Maximum Humidity 94    
Minimum Humidity 55    
Precipitation  
Precipitation 0.00 in 0.10 in - ()
Sea Level Pressure  
Sea Level Pressure 29.97 in    
Wind  
Wind Speed 5 mph ()    
Max Wind Speed 13 mph    
Max Gust Speed -    
Visibility 6.9 miles    
Events      
Averages and records for this station are not official NWS values.
T = Trace of Precipitation, MM = Missing Value Source: Averaged Metar Reports

Daily Weather History Graph

Daily Weather History Graph

Search for Another Location

Airport:

Trip Planner

Search our weather history database for the weather conditions in past years. The results will help you decide how hot, cold, wet, or windy it might be!

Date:

Astronomy

Aug. 29, 2013 Rise Set
Actual Time 6:20 AM FJT 6:02 PM FJT
Civil Twilight 5:58 AM FJT 6:24 PM FJT
Nautical Twilight 5:32 AM FJT 6:50 PM FJT
Astronomical Twilight 5:07 AM FJT 7:15 PM FJT
Moon 12:29 AM FJT (8/29) 11:59 AM FJT (8/29)
Length of Visible Light 12h 26m
Length of Day
11h 42m
Last Quarter, 44% of the Moon is Illuminated
Aug 29
Last Quarter
Sep 5
New
Sep 13
First Quarter
Sep 19
Full
Sep 27
Last Quarter

Hourly Weather History & Observations

Time (FJT) Temp. Heat Index Dew Point Humidity Pressure Visibility Wind Dir Wind Speed Gust Speed Precip Events Conditions
12:00 AM 73 °F - 68 °F 79% 30.02 in 12 mi Calm Calm - -   Partly Cloudy
12:00 AM 73.4 °F - 68.0 °F 83% 30.01 in 6.2 mi Calm Calm - N/A   Mostly Cloudy
1:00 AM 73.4 °F - 68.0 °F 83% 29.98 in 6.2 mi ESE 5.8 mph - N/A   Scattered Clouds
2:00 AM 71.6 °F - 68.0 °F 88% 29.98 in 6.2 mi SE 5.8 mph - N/A   Partly Cloudy
3:00 AM 71 °F - 67 °F 84% 29.97 in 12 mi SSE 13.4 mph - -   Partly Cloudy
3:00 AM 71.6 °F - 68.0 °F 88% 29.95 in 6.2 mi SSE 6.9 mph - N/A   Partly Cloudy
4:00 AM 69.8 °F - 68.0 °F 94% 29.95 in 6.2 mi East 3.5 mph - N/A   Partly Cloudy
5:00 AM 68.0 °F - 66.2 °F 94% 29.95 in 6.2 mi ESE 5.8 mph - N/A   Partly Cloudy
6:00 AM 68 °F - 66 °F 92% 29.99 in 31 mi SE 3.5 mph - -   Partly Cloudy
6:00 AM 68.0 °F - 66.2 °F 94% 29.98 in 6.2 mi SE 3.5 mph - N/A   Partly Cloudy
7:00 AM 68.0 °F - 66.2 °F 94% 29.98 in 6.2 mi East 5.8 mph - N/A   Partly Cloudy
8:00 AM 73.4 °F - 68.0 °F 83% 30.01 in 6.2 mi SE 8.1 mph - N/A   Partly Cloudy
9:00 AM 78 °F - 68 °F 64% 30.03 in 31 mi SE 4.6 mph - -   Partly Cloudy
9:00 AM 78.8 °F - 68.0 °F 69% 30.01 in 6.2 mi SE 4.6 mph - N/A   Mostly Cloudy
10:00 AM 80.6 °F 82.7 °F 66.2 °F 61% 30.01 in 6.2 mi Calm Calm - N/A   Scattered Clouds
11:00 AM 84.2 °F 86.6 °F 66.2 °F 55% 30.01 in 6.2 mi Calm Calm - N/A   Scattered Clouds
12:00 PM 82 °F - 69 °F 56% 29.98 in 31 mi East 10.4 mph - -   Partly Cloudy
12:00 PM 82.4 °F 85.4 °F 68.0 °F 62% 29.98 in 6.2 mi East 10.4 mph - N/A   Scattered Clouds
1:00 PM 82.4 °F 86.3 °F 69.8 °F 66% 29.95 in 31.1 mi SE 8.1 mph - N/A   Scattered Clouds
2:00 PM 80.6 °F 83.9 °F 69.8 °F 70% 29.92 in 6.2 mi SE 12.7 mph - N/A   Scattered Clouds
3:00 PM 82 °F - 69 °F 56% 29.92 in 31 mi WNW 11.5 mph - -   Partly Cloudy
3:00 PM 82.4 °F 86.3 °F 69.8 °F 66% 29.92 in 6.2 mi WNW 11.5 mph - N/A   Scattered Clouds
4:00 PM 82.4 °F 86.3 °F 69.8 °F 66% 29.92 in 6.2 mi NNW 12.7 mph - N/A   Scattered Clouds
5:00 PM 80.6 °F 83.2 °F 68.0 °F 65% 29.92 in 6.2 mi NNW 11.5 mph - N/A   Scattered Clouds
6:00 PM 78 °F - 68 °F 65% 29.95 in 31 mi NNW 9.2 mph - -   Partly Cloudy
6:00 PM 78.8 °F - 68.0 °F 69% 29.95 in 6.2 mi NNW 9.2 mph - N/A   Scattered Clouds
7:00 PM 77.0 °F - 69.8 °F 78% 29.95 in 6.2 mi NNW 5.8 mph - N/A   Partly Cloudy
8:00 PM 75.2 °F - 69.8 °F 83% 29.98 in 6.2 mi NNE 3.5 mph - N/A   Scattered Clouds
9:00 PM 76 °F - 71 °F 78% 30.00 in 12 mi NNE 3.5 mph - -   Partly Cloudy
9:00 PM 77.0 °F - 69.8 °F 78% 29.98 in 6.2 mi NNE 3.5 mph - N/A   Scattered Clouds
10:00 PM 75.2 °F - 69.8 °F 83% 29.98 in 6.2 mi ESE 4.6 mph - N/A   Mostly Cloudy
11:00 PM 73.4 °F - 69.8 °F 88% 29.98 in 6.2 mi ENE 5.8 mph - N/A   Partly Cloudy